Regional Weather Roundup
Issued by NWS

Home | Current Version | Previous Version | Graphics & Text | Print | Product List | Glossary Off
Versions: 1 2 3 4 5 6 7 8 9 10 11 12 13 14 15 16 17 18 19 20 21 22 23 24 25 26 27 28 29 30 31 32 33 34 35 36 37 38 39 40 41 42 43 44 45 46 47 48 49 50

000
ASUS43 KLOT 290408
RWRIL

ILLINOIS REGIONAL WEATHER ROUNDUP
NATIONAL WEATHER SERVICE CHICAGO/ROMEOVILLE IL
1100 PM CDT TUE MAR 28 2017

NOTE: "FAIR" INDICATES FEW OR NO CLOUDS BELOW 12,000 FEET WITH NO
SIGNIFICANT WEATHER AND/OR OBSTRUCTIONS TO VISIBILITY.

* THESE STATIONS ARE NOT UNDER NWS QUALITY CONTROL. THEY ALSO MAY NOT
  REPORT WEATHER SUCH AS PRECIPITATION OR FOG.

ILZ001-002-007-009-015-016-024-290500-
NORTHWEST ILLINOIS

CITY           SKY/WX    TMP DP  RH WIND       PRES   REMARKS
MOLINE         PTCLDY    38  35  89 CALM      30.18R
STERLING*      CLEAR     40  39  97 CALM      30.21R
SAVANNA*       CLOUDY    36  36  97 NE3       30.21R FOG
$$

ILZ003-004-008-010-011-017-018-290500-
NORTH CENTRAL ILLINOIS

CITY           SKY/WX    TMP DP  RH WIND       PRES   REMARKS
ROCKFORD       CLEAR     40  34  79 E6        30.23R
FREEPORT*      CLEAR     38  35  89 E5        30.22R WCI  35
ROCHELLE*      CLEAR     37  35  92 E6        30.22R WCI  32
DE KALB*       CLOUDY    41  38  88 E10       30.21S
PERU*          CLEAR     41  37  84 E6        30.21R
$$

ILZ005-006-012>014-019>023-290500-
NORTHEAST ILLINOIS

CITY           SKY/WX    TMP DP  RH WIND       PRES   REMARKS
CHICAGO-OHARE  CLOUDY    39  35  86 NE10      30.22R WCI  32
CHICAGO-MIDWAY CLOUDY    42  37  82 E8        30.22S
AURORA         CLOUDY    44  38  79 E10       30.21S
LANSING*       CLOUDY    39  39  99 NE6       30.22S WCI  35
JOLIET*        CLOUDY    44  40  83 E10       30.21S
WAUKEGAN       FOG       35  35 100 NE7       30.24R VSB 1/4 WCI  29
DUPAGE AIRPORT CLOUDY    42  39  89 E9        30.20S
KANKAKEE*      CLOUDY    41  39  92 NE7       30.20S
WHEELING       CLOUDY    35  35 100 NE10      30.25R FOG     WCI  27
MORRIS*        CLOUDY    43  38  84 E7        30.20R
ROMEOVILLE*    CLOUDY    42  40  93 E7        30.21S
NORTHERLY ISL    N/A     37  35  92 N10         N/A  WCI  30
$$

LMZ740>746-290500-
SOUTHERN LAKE MICHIGAN

STATION/POSITION SKY/WX   TEMP    WIND        PRES    VSBY  WAVE
                          AIR SEA DIR/SP/G                  HT/PER
                          (F)     (DEG/KT/KT) (MB)    (MI)  (FT/S)
HARRISON CRIB              36      30/ 11/ 13   N/A
BURNHAM HARBOR             36      20/ 11/ 12   N/A
CALUMET HARBOR             38      10/  7/  9 1022.9R
BURNS HARBOR               39      40/ 10/ 12 1024.0R
MICHIGAN CITY              35      30/ 12/ 13   N/A
$$

ILZ025>027-034>036-040-047-049-050-058-095>099-290500-
WEST-CENTRAL ILLINOIS

CITY           SKY/WX    TMP DP  RH WIND       PRES   REMARKS
QUINCY         CLOUDY    51  46  83 E12       30.11F
GALESBURG*     PTCLDY    43  39  88 E5        30.16S
MACOMB*        CLOUDY    47  43  87 E10       30.18S
JACKSONVILLE*  CLOUDY    49  45  85 E14       30.14S
PITTSFIELD*    CLOUDY    51  47  85 E8        30.12F
$$

ILZ028>032-037-038-041>044-048-051>054-059>061-290500-
CENTRAL ILLINOIS

CITY           SKY/WX    TMP DP  RH WIND       PRES   REMARKS
PONTIAC        CLOUDY    43  41  94 E10       30.21R
BLOOMINGTON    CLOUDY    42  40  92 NE12      30.19S
DECATUR        CLOUDY    46  40  79 E13       30.16S
PEORIA         CLOUDY    47  40  76 E7        30.17F
LACON*         CLEAR     42  39  90 E12       30.18S
LINCOLN*       CLOUDY    47  43  87 NE9       30.16F
SPRINGFIELD    CLOUDY    50  43  77 NE13      30.16R
TAYLORVILLE    CLOUDY    48  43  81 E12       30.15R
$$

ILZ033-039-045-046-055>057-062-063-290500-
EAST-CENTRAL ILLINOIS

CITY           SKY/WX    TMP DP  RH WIND       PRES   REMARKS
CHAMPAIGN      CLOUDY    44  38  79 NE12      30.17R
RANTOUL*       CLOUDY    44  41  87 NE8       30.18S
MATTOON        CLOUDY    47  43  86 NE12      30.14S
PARIS*         CLOUDY    47  42  85 CALM      30.17R
$$

ILZ079-100>102-290500-
SOUTHWEST ILLINOIS

CITY           SKY/WX    TMP DP  RH WIND       PRES   REMARKS
ALTON          CLOUDY    52  46  79 NE7       30.11F
BELLEVILLE     CLOUDY    55  50  85 NE7       30.09S
CAHOKIA*       CLOUDY    55  47  74 NE8       30.10S
SPARTA*        CLOUDY    54  49  83 NE7       30.11R
$$

ILZ064>066-069>071-074>076-080>082-084>086-088>090-092>094-290500-
SOUTH-CENTRAL ILLINOIS

CITY           SKY/WX    TMP DP  RH WIND       PRES   REMARKS
CARBONDALE     CLOUDY    54  51  90 CALM      30.08S
CAIRO*         PTCLDY    55  51  86 NE5       30.06S
EFFINGHAM*     CLOUDY    51  46  85 N5        30.16R HAZE
MARION         CLOUDY    55  52  88 N3        30.09S
MT. VERNON     CLOUDY    55  48  77 NE10      30.10S
CENTRALIA*     MOCLDY    55  49  80 NE6       30.10S
SALEM*         CLOUDY    56  47  74 NE5       30.11S
METROPOLIS*    CLOUDY    55  51  85 CALM      30.07S
$$

ILZ067-068-072-073-078-083-087-091-290500-
SOUTHEAST ILLINOIS

CITY           SKY/WX    TMP DP  RH WIND       PRES   REMARKS
LAWRENCEVILLE  PTCLDY    52  48  86 NE9       30.12R
FLORA*         CLOUDY    55  47  75 N8        30.12S
FAIRFIELD*     CLOUDY    54  49  81 N5        30.10S
HARRISBURG*    PTCLDY    51  50  94 NE5       30.08F
ROBINSON*      CLOUDY    51  46  84 N9        30.15R
CARMI*         CLEAR     50  49  97 N6        30.09S FOG
$$

ABBREVIATIONS USED IN REMARKS
   TC - TEMPERATURE IN CELSIUS
  WCI - WIND CHILL INDEX
   HX - HEAT INDEX
  VSB - VISIBILITY
$$





USA.gov is the U.S. government's official web portal to all federal, state and local government web resources and services.